Time,TemperatureF,DewpointF,PressureIn,WindDirection,WindDirectionDegrees,WindSpeedMPH,WindSpeedGustMPH,Humidity,HourlyPrecipIn,Conditions,Clouds,dailyrainin,SoftwareType,DateUTC
2013-05-23 00:03:00,64.0,63.0,29.75,South,177,0.0,0.0,95,0.00,,,0.01,,2013-05-23 04:03:00,
2013-05-23 00:12:00,63.0,62.0,29.75,South,177,0.0,0.0,95,0.00,,,0.01,,2013-05-23 04:12:00,
2013-05-23 00:22:00,63.0,62.0,29.75,South,177,0.0,0.0,95,0.00,,,0.01,,2013-05-23 04:22:00,
2013-05-23 00:33:00,63.0,62.0,29.76,South,177,0.0,0.0,96,0.00,,,0.01,,2013-05-23 04:33:00,
2013-05-23 00:43:00,63.0,62.0,29.76,South,177,0.0,0.0,96,0.00,,,0.01,,2013-05-23 04:43:00,
2013-05-23 00:52:00,63.0,62.0,29.76,South,177,0.0,0.0,96,0.00,,,0.01,,2013-05-23 04:52:00,
2013-05-23 01:02:00,63.0,62.0,29.76,South,177,0.0,0.0,97,0.00,,,0.01,,2013-05-23 05:02:00,
2013-05-23 01:11:00,64.0,63.0,29.77,South,177,0.0,0.0,97,0.00,,,0.01,,2013-05-23 05:11:00,
2013-05-23 01:22:00,64.0,63.0,29.77,South,177,0.0,0.0,97,0.00,,,0.01,,2013-05-23 05:22:00,
2013-05-23 01:32:00,64.0,63.0,29.76,South,177,0.0,0.0,98,0.00,,,0.01,,2013-05-23 05:32:00,
2013-05-23 01:42:00,64.0,63.0,29.77,SSW,213,0.0,3.0,98,0.00,,,0.01,,2013-05-23 05:42:00,
2013-05-23 01:52:00,64.0,63.0,29.77,SSW,213,0.0,3.0,98,0.00,,,0.01,,2013-05-23 05:52:00,
2013-05-23 02:02:00,64.0,63.0,29.77,SSW,213,0.0,0.0,98,0.00,,,0.01,,2013-05-23 06:02:00,
2013-05-23 02:12:00,64.0,64.0,29.77,NW,306,0.0,0.0,99,0.00,,,0.01,,2013-05-23 06:12:00,
2013-05-23 02:21:00,64.0,64.0,29.77,NW,306,0.0,0.0,99,0.00,,,0.01,,2013-05-23 06:21:00,
2013-05-23 02:32:00,64.0,64.0,29.76,NW,306,0.0,0.0,99,0.00,,,0.01,,2013-05-23 06:32:00,
2013-05-23 02:42:00,64.0,64.0,29.76,NW,306,0.0,0.0,99,0.00,,,0.01,,2013-05-23 06:42:00,
2013-05-23 02:52:00,64.0,64.0,29.77,NW,306,0.0,3.0,99,0.00,,,0.01,,2013-05-23 06:52:00,
2013-05-23 03:02:00,65.0,65.0,29.77,WSW,251,2.0,9.0,99,0.00,,,0.01,,2013-05-23 07:02:00,
2013-05-23 03:11:00,64.0,64.0,29.77,NNW,340,0.0,8.0,99,0.00,,,0.01,,2013-05-23 07:11:00,
2013-05-23 03:21:00,64.0,64.0,29.77,NNW,340,0.0,8.0,99,0.00,,,0.01,,2013-05-23 07:21:00,
2013-05-23 03:32:00,63.0,62.0,29.77,NNW,340,0.0,0.0,98,0.00,,,0.01,,2013-05-23 07:32:00,
2013-05-23 03:42:00,62.0,61.0,29.77,NNW,340,0.0,0.0,98,0.00,,,0.01,,2013-05-23 07:42:00,
2013-05-23 03:59:00,62.0,61.0,29.77,NNW,340,0.0,0.0,98,0.00,,,0.01,,2013-05-23 07:59:00,
2013-05-23 04:11:00,62.0,61.0,29.76,NNW,340,0.0,0.0,97,0.00,,,0.01,,2013-05-23 08:11:00,
2013-05-23 04:22:00,62.0,61.0,29.76,NNW,340,0.0,0.0,97,0.00,,,0.01,,2013-05-23 08:22:00,
2013-05-23 04:32:00,62.0,61.0,29.76,NNW,340,0.0,0.0,97,0.00,,,0.01,,2013-05-23 08:32:00,
2013-05-23 04:42:00,62.0,61.0,29.76,NNW,340,0.0,0.0,97,0.00,,,0.01,,2013-05-23 08:42:00,
2013-05-23 04:52:00,61.0,60.0,29.77,NNW,340,0.0,0.0,97,0.00,,,0.01,,2013-05-23 08:52:00,
2013-05-23 05:01:00,61.0,60.0,29.76,NNW,340,0.0,0.0,97,0.00,,,0.01,,2013-05-23 09:01:00,
2013-05-23 05:11:00,60.0,59.0,29.77,NNW,340,0.0,0.0,97,0.00,,,0.01,,2013-05-23 09:11:00,
2013-05-23 05:22:00,60.0,59.0,29.77,NNW,340,0.0,0.0,97,0.00,,,0.01,,2013-05-23 09:22:00,
2013-05-23 05:33:00,60.0,59.0,29.77,NNW,340,0.0,0.0,97,0.00,,,0.01,,2013-05-23 09:33:00,
2013-05-23 05:42:00,60.0,59.0,29.77,NNW,340,0.0,0.0,97,0.00,,,0.01,,2013-05-23 09:42:00,
2013-05-23 05:53:00,60.0,59.0,29.77,NNW,340,0.0,0.0,98,0.00,,,0.01,,2013-05-23 09:53:00,
2013-05-23 06:02:00,60.0,59.0,29.77,NNW,340,0.0,0.0,98,0.00,,,0.01,,2013-05-23 10:02:00,
2013-05-23 06:12:00,60.0,59.0,29.78,NNW,340,0.0,0.0,98,0.00,,,0.01,,2013-05-23 10:12:00,
2013-05-23 06:22:00,60.0,59.0,29.78,NNW,340,0.0,0.0,98,0.00,,,0.01,,2013-05-23 10:22:00,
2013-05-23 06:32:00,60.0,59.0,29.78,NNW,340,0.0,0.0,98,0.00,,,0.01,,2013-05-23 10:32:00,
2013-05-23 06:42:00,60.0,59.0,29.78,NNW,340,0.0,0.0,98,0.00,,,0.01,,2013-05-23 10:42:00,
2013-05-23 06:52:00,62.0,62.0,29.79,NNW,340,0.0,0.0,99,0.00,,,0.01,,2013-05-23 10:52:00,
2013-05-23 07:02:00,62.0,62.0,29.79,NNW,340,0.0,0.0,99,0.00,,,0.01,,2013-05-23 11:02:00,
2013-05-23 07:11:00,62.0,62.0,29.79,NNW,340,0.0,0.0,99,0.00,,,0.01,,2013-05-23 11:11:00,
2013-05-23 07:22:00,62.0,62.0,29.79,NNW,340,0.0,0.0,99,0.00,,,0.01,,2013-05-23 11:22:00,
2013-05-23 07:32:00,62.0,62.0,29.79,NNW,340,0.0,0.0,99,0.01,,,0.02,,2013-05-23 11:32:00,
2013-05-23 07:42:00,62.0,62.0,29.79,NNW,340,0.0,0.0,99,0.01,,,0.02,,2013-05-23 11:42:00,
2013-05-23 07:52:00,63.0,63.0,29.80,NNW,340,0.0,0.0,100,0.01,,,0.02,,2013-05-23 11:52:00,
2013-05-23 08:01:00,63.0,63.0,29.80,NNW,340,0.0,0.0,100,0.01,,,0.02,,2013-05-23 12:01:00,
2013-05-23 08:12:00,64.0,64.0,29.80,NNW,340,0.0,0.0,100,0.01,,,0.02,,2013-05-23 12:12:00,
2013-05-23 08:21:00,64.0,64.0,29.80,NNW,340,0.0,0.0,100,0.01,,,0.02,,2013-05-23 12:21:00,
2013-05-23 08:32:00,64.0,64.0,29.80,NNW,340,0.0,0.0,100,0.00,,,0.02,,2013-05-23 12:32:00,
2013-05-23 08:42:00,64.0,64.0,29.80,NNW,340,0.0,0.0,100,0.00,,,0.02,,2013-05-23 12:42:00,
2013-05-23 08:52:00,64.0,64.0,29.81,NNW,340,0.0,0.0,100,0.00,,,0.02,,2013-05-23 12:52:00,
2013-05-23 09:01:00,64.0,64.0,29.81,NNW,340,0.0,0.0,100,0.00,,,0.02,,2013-05-23 13:01:00,
2013-05-23 09:11:00,64.0,64.0,29.81,NNW,340,0.0,0.0,100,0.00,,,0.02,,2013-05-23 13:11:00,
2013-05-23 09:22:00,64.0,64.0,29.81,NNW,340,0.0,0.0,100,0.00,,,0.02,,2013-05-23 13:22:00,
2013-05-23 09:32:00,64.0,64.0,29.81,WSW,241,0.0,6.0,99,0.00,,,0.02,,2013-05-23 13:32:00,
2013-05-23 09:42:00,64.0,64.0,29.81,WSW,241,0.0,6.0,99,0.00,,,0.02,,2013-05-23 13:42:00,
2013-05-23 09:52:00,65.0,65.0,29.82,WSW,241,0.0,0.0,99,0.00,,,0.02,,2013-05-23 13:52:00,
2013-05-23 10:02:00,66.0,65.0,29.82,WSW,241,0.0,0.0,97,0.00,,,0.02,,2013-05-23 14:02:00,
2013-05-23 10:11:00,66.0,65.0,29.82,WSW,244,1.0,10.0,96,0.00,,,0.02,,2013-05-23 14:11:00,
2013-05-23 10:21:00,66.0,65.0,29.82,WSW,244,1.0,10.0,96,0.00,,,0.02,,2013-05-23 14:21:00,
2013-05-23 10:32:00,67.0,65.0,29.82,WSW,240,0.0,0.0,93,0.00,,,0.02,,2013-05-23 14:32:00,
2013-05-23 10:42:00,67.0,65.0,29.82,WSW,240,0.0,0.0,93,0.00,,,0.02,,2013-05-23 14:42:00,
2013-05-23 10:52:00,68.0,66.0,29.82,SSW,209,1.0,9.0,92,0.00,,,0.02,,2013-05-23 14:52:00,
2013-05-23 11:01:00,70.0,67.0,29.81,SW,233,0.0,7.0,89,0.00,,,0.02,,2013-05-23 15:01:00,
2013-05-23 11:11:00,70.0,65.0,29.82,WSW,253,0.0,7.0,84,0.00,,,0.02,,2013-05-23 15:11:00,
2013-05-23 11:21:00,70.0,65.0,29.82,WSW,253,0.0,7.0,84,0.00,,,0.02,,2013-05-23 15:21:00,
2013-05-23 11:33:00,68.0,63.0,29.81,SSW,206,0.0,3.0,83,0.00,,,0.02,,2013-05-23 15:33:00,
2013-05-23 11:42:00,68.0,63.0,29.81,SSW,206,0.0,3.0,83,0.00,,,0.02,,2013-05-23 15:42:00,
2013-05-23 11:53:00,70.0,65.0,29.81,SW,219,2.0,6.0,83,0.00,,,0.02,,2013-05-23 15:53:00,
2013-05-23 12:03:00,71.0,62.0,29.80,West,271,4.0,8.0,72,0.00,,,0.02,,2013-05-23 16:03:00,
2013-05-23 12:12:00,70.0,61.0,29.80,SW,230,1.0,9.0,73,0.00,,,0.02,,2013-05-23 16:12:00,
2013-05-23 12:23:00,70.0,61.0,29.80,SW,230,1.0,9.0,73,0.00,,,0.02,,2013-05-23 16:23:00,
2013-05-23 12:34:00,70.0,61.0,29.80,West,265,1.0,7.0,74,0.00,,,0.02,,2013-05-23 16:34:00,
2013-05-23 12:42:00,70.0,61.0,29.80,West,265,1.0,7.0,74,0.00,,,0.02,,2013-05-23 16:42:00,
2013-05-23 12:52:00,71.0,60.0,29.80,West,265,4.0,10.0,69,0.00,,,0.02,,2013-05-23 16:52:00,
2013-05-23 13:03:00,70.0,60.0,29.80,SSW,195,5.0,10.0,71,0.00,,,0.02,,2013-05-23 17:03:00,
2013-05-23 13:11:00,70.0,59.0,29.80,WSW,251,2.0,10.0,69,0.00,,,0.02,,2013-05-23 17:11:00,
2013-05-23 13:23:00,70.0,59.0,29.80,WSW,251,2.0,10.0,69,0.00,,,0.02,,2013-05-23 17:23:00,
2013-05-23 13:33:00,71.0,59.0,29.80,WSW,248,5.0,10.0,66,0.00,,,0.02,,2013-05-23 17:33:00,
2013-05-23 13:43:00,71.0,59.0,29.80,WSW,248,5.0,10.0,66,0.00,,,0.02,,2013-05-23 17:43:00,
2013-05-23 13:52:00,74.0,61.0,29.80,SW,230,4.0,12.0,63,0.00,,,0.02,,2013-05-23 17:52:00,
2013-05-23 14:01:00,74.0,57.0,29.79,WSW,257,9.0,15.0,55,0.00,,,0.02,,2013-05-23 18:01:00,
2013-05-23 14:11:00,75.0,58.0,29.79,SW,234,6.0,10.0,55,0.00,,,0.02,,2013-05-23 18:11:00,
2013-05-23 14:22:00,75.0,58.0,29.79,SW,234,6.0,10.0,55,0.00,,,0.02,,2013-05-23 18:22:00,
2013-05-23 14:32:00,74.0,57.0,29.78,SW,233,1.0,9.0,55,0.00,,,0.02,,2013-05-23 18:32:00,
2013-05-23 14:42:00,74.0,57.0,29.78,SW,233,1.0,9.0,55,0.00,,,0.02,,2013-05-23 18:42:00,
2013-05-23 14:52:00,74.0,56.0,29.79,WNW,295,6.0,13.0,53,0.00,,,0.02,,2013-05-23 18:52:00,
2013-05-23 15:01:00,75.0,55.0,29.79,WSW,255,7.0,14.0,49,0.00,,,0.02,,2013-05-23 19:01:00,
2013-05-23 15:11:00,75.0,55.0,29.79,WSW,255,7.0,14.0,49,0.00,,,0.02,,2013-05-23 19:11:00,
2013-05-23 15:21:00,74.0,55.0,29.79,SW,220,6.0,12.0,51,0.00,,,0.02,,2013-05-23 19:21:00,
2013-05-23 15:32:00,71.0,54.0,29.80,West,277,8.0,18.0,56,0.00,,,0.02,,2013-05-23 19:32:00,
2013-05-23 15:42:00,73.0,56.0,29.80,West,260,8.0,17.0,55,0.00,,,0.02,,2013-05-23 19:42:00,
2013-05-23 15:52:00,73.0,56.0,29.80,West,260,8.0,17.0,55,0.00,,,0.02,,2013-05-23 19:52:00,
2013-05-23 16:02:00,72.0,56.0,29.80,NW,313,5.0,20.0,57,0.00,,,0.02,,2013-05-23 20:02:00,
2013-05-23 16:11:00,71.0,56.0,29.81,WNW,284,7.0,17.0,59,0.00,,,0.02,,2013-05-23 20:11:00,
2013-05-23 16:21:00,71.0,56.0,29.81,WNW,284,7.0,17.0,59,0.00,,,0.02,,2013-05-23 20:21:00,
2013-05-23 16:32:00,69.0,56.0,29.81,NW,309,6.0,13.0,63,0.00,,,0.02,,2013-05-23 20:32:00,
2013-05-23 16:42:00,69.0,56.0,29.81,NW,309,6.0,13.0,63,0.00,,,0.02,,2013-05-23 20:42:00,
2013-05-23 16:52:00,69.0,55.0,29.81,West,271,6.0,17.0,61,0.00,,,0.02,,2013-05-23 20:52:00,
2013-05-23 17:01:00,68.0,54.0,29.81,WSW,241,3.0,11.0,61,0.00,,,0.02,,2013-05-23 21:01:00,
2013-05-23 17:11:00,68.0,54.0,29.81,WSW,241,3.0,11.0,61,0.00,,,0.02,,2013-05-23 21:11:00,
2013-05-23 17:22:00,68.0,55.0,29.82,NNW,344,6.0,11.0,63,0.00,,,0.02,,2013-05-23 21:22:00,
2013-05-23 17:32:00,67.0,57.0,29.83,WSW,247,6.0,19.0,70,0.00,,,0.02,,2013-05-23 21:32:00,
2013-05-23 17:43:00,67.0,57.0,29.83,WSW,247,6.0,19.0,70,0.00,,,0.02,,2013-05-23 21:43:00,
2013-05-23 17:53:00,65.0,56.0,29.83,WNW,289,8.0,15.0,73,0.00,,,0.02,,2013-05-23 21:53:00,
2013-05-23 18:03:00,62.0,58.0,29.83,WNW,293,3.0,5.0,88,0.02,,,0.04,,2013-05-23 22:03:00,
2013-05-23 18:12:00,62.0,59.0,29.84,NNW,329,1.0,8.0,90,0.02,,,0.04,,2013-05-23 22:12:00,
2013-05-23 18:22:00,62.0,59.0,29.84,NNW,329,1.0,8.0,90,0.02,,,0.04,,2013-05-23 22:22:00,
2013-05-23 18:33:00,62.0,60.0,29.84,NNW,343,3.0,11.0,93,0.03,,,0.05,,2013-05-23 22:33:00,
2013-05-23 18:42:00,62.0,60.0,29.84,NNW,343,3.0,11.0,93,0.03,,,0.05,,2013-05-23 22:42:00,
2013-05-23 18:52:00,62.0,60.0,29.84,WSW,257,5.0,16.0,94,0.04,,,0.06,,2013-05-23 22:52:00,
2013-05-23 19:02:00,62.0,61.0,29.84,West,277,0.0,9.0,95,0.04,,,0.08,,2013-05-23 23:02:00,
2013-05-23 19:11:00,61.0,60.0,29.86,NNW,338,7.0,16.0,96,0.06,,,0.10,,2013-05-23 23:11:00,
2013-05-23 19:21:00,61.0,60.0,29.86,NNW,338,7.0,16.0,96,0.06,,,0.10,,2013-05-23 23:21:00,
2013-05-23 19:32:00,58.0,57.0,29.87,NW,324,8.0,12.0,97,0.06,,,0.11,,2013-05-23 23:32:00,
2013-05-23 19:42:00,58.0,57.0,29.87,NW,324,8.0,12.0,97,0.06,,,0.11,,2013-05-23 23:42:00,
2013-05-23 19:52:00,57.0,56.0,29.89,North,358,6.0,16.0,97,0.05,,,0.11,,2013-05-23 23:52:00,
2013-05-23 20:01:00,56.0,55.0,29.89,NNW,330,4.0,20.0,98,0.03,,,0.11,,2013-05-24 00:01:00,
2013-05-23 20:12:00,55.0,54.0,29.91,NW,307,5.0,17.0,98,0.01,,,0.11,,2013-05-24 00:12:00,
2013-05-23 20:21:00,55.0,54.0,29.91,NW,307,5.0,17.0,98,0.01,,,0.11,,2013-05-24 00:21:00,
2013-05-23 20:32:00,54.0,53.0,29.92,North,358,8.0,17.0,98,0.00,,,0.11,,2013-05-24 00:32:00,
2013-05-23 20:42:00,54.0,53.0,29.92,North,358,8.0,17.0,98,0.00,,,0.11,,2013-05-24 00:42:00,
2013-05-23 20:52:00,53.0,52.0,29.93,North,351,8.0,17.0,97,0.00,,,0.11,,2013-05-24 00:52:00,
2013-05-23 21:01:00,53.0,52.0,29.93,NNW,333,6.0,13.0,97,0.00,,,0.11,,2013-05-24 01:01:00,
2013-05-23 21:12:00,53.0,52.0,29.93,NNW,333,6.0,13.0,97,0.00,,,0.11,,2013-05-24 01:12:00,
2013-05-23 21:22:00,52.0,51.0,29.94,NNW,340,9.0,18.0,97,0.00,,,0.11,,2013-05-24 01:22:00,
2013-05-23 21:32:00,51.0,50.0,29.95,NNW,329,10.0,14.0,96,0.00,,,0.10,,2013-05-24 01:32:00,
2013-05-23 21:42:00,51.0,50.0,29.95,NNW,329,10.0,14.0,96,0.00,,,0.10,,2013-05-24 01:42:00,
2013-05-23 21:52:00,51.0,50.0,29.95,North,5,5.0,15.0,95,0.00,,,0.10,,2013-05-24 01:52:00,
2013-05-23 22:02:00,51.0,50.0,29.97,NW,313,5.0,14.0,95,0.00,,,0.10,,2013-05-24 02:02:00,
2013-05-23 22:12:00,50.0,49.0,29.98,NW,326,7.0,15.0,96,0.00,,,0.10,,2013-05-24 02:12:00,
2013-05-23 22:21:00,50.0,49.0,29.98,NW,326,7.0,15.0,96,0.00,,,0.10,,2013-05-24 02:21:00,
2013-05-23 22:32:00,50.0,49.0,29.99,NNW,338,8.0,14.0,95,0.00,,,0.10,,2013-05-24 02:32:00,
2013-05-23 22:42:00,50.0,49.0,29.99,NNW,338,8.0,14.0,95,0.00,,,0.10,,2013-05-24 02:42:00,
2013-05-23 22:52:00,50.0,49.0,29.99,NNW,338,8.0,14.0,95,0.00,,,0.10,,2013-05-24 02:52:00,
2013-05-23 23:02:00,50.0,48.0,30.00,North,358,6.0,16.0,94,0.00,,,0.10,,2013-05-24 03:02:00,
2013-05-23 23:11:00,50.0,49.0,30.01,NNW,344,8.0,12.0,95,0.00,,,0.10,,2013-05-24 03:11:00,
2013-05-23 23:22:00,50.0,49.0,30.01,NNW,344,8.0,12.0,95,0.00,,,0.10,,2013-05-24 03:22:00,
2013-05-23 23:33:00,49.0,48.0,30.01,North,358,10.0,18.0,95,0.00,,,0.10,,2013-05-24 03:33:00,
2013-05-23 23:42:00,49.0,48.0,30.01,North,358,10.0,18.0,95,0.00,,,0.10,,2013-05-24 03:42:00,
2013-05-23 23:53:00,49.0,47.0,30.01,NE,37,5.0,17.0,94,0.00,,,0.10,,2013-05-24 03:53:00,